RH
47 33 28 33 42 41 44 28 24 25 27 23 22 17 18 22 19 19 19 18 20 23 24 24 19 16 19 20 19 13 6 3 2 2 1 1 1 1 2 1 2 2 2 3 4
51 38 39 42 50 73 62 25 31 27 24 22 27 25 20 23 21 17 17 17 18 20 21 22 23 16 25 19 18 12 5 3 2 2 1 1 1 2 2 1 1 2 2 3 4
52 48 41 64 68 64 61 40 30 27 25 27 32 27 21 21 24 21 18 19 19 19 18 21 15 18 17 17 18 10 4 2 2 2 1 1 1 2 1 1 1 2 2 3 3
52 67 76 83 86 66 60 54 34 33 30 28 30 31 26 23 22 22 22 25 23 26 28 17 16 19 16 19 15 8 3 2 2 1 1 1 1 1 1 1 1 2 2 2 3
50 54 63 83 93 91 86 61 44 33 40 34 36 35 32 30 26 27 30 32 35 29 23 28 18 25 20 16 16 5 2 2 1 1 1 1 1 1 1 1 1 1 2 2 2
61 53 61 72 92 100 100 65 50 44 47 46 48 38 36 37 31 32 36 41 40 32 39 25 16 17 20 18 12 4 2 2 1 1 1 1 1 1 1 2 1 2 2 2 2
49 51 67 63 89 99 96 67 53 64 68 74 57 42 40 40 36 38 43 39 42 48 27 30 16 14 17 17 10 3 2 2 1 1 1 1 1 1 1 2 2 2 2 1 2
76 86 75 55 71 100 99 92 91 75 69 72 54 42 46 45 41 49 45 55 52 37 33 25 21 13 14 13 8 2 2 2 1 1 1 1 1 1 1 2 2 2 2 1 2
91 88 87 78 77 100 100 93 89 55 56 61 54 53 57 49 44 57 64 65 56 46 29 26 21 13 14 14 6 2 2 2 1 1 1 1 1 1 1 2 2 2 2 2 2
100 85 96 91 100 100 94 90 76 54 58 49 50 52 63 57 61 70 72 64 60 45 32 19 16 14 12 14 6 2 2 2 1 1 1 1 2 1 1 1 2 2 2 2 1
100 100 100 100 100 95 72 55 54 54 53 55 60 68 72 66 72 77 79 67 48 36 34 25 16 14 13 14 6 3 2 2 1 1 1 1 1 1 1 1 2 2 2 2 2
100 100 100 90 88 66 58 70 66 68 68 74 84 86 80 80 95 79 85 62 51 47 35 19 16 14 15 12 5 3 2 2 2 2 2 1 2 1 1 2 1 2 2 2 1
98 92 81 73 70 80 73 89 94 93 99 98 93 90 90 98 93 91 78 56 48 48 36 20 15 14 15 11 5 3 2 2 2 2 2 2 1 1 1 1 2 2 2 2 2
97 91 98 89 85 92 92 100 99 99 97 86 90 99 100 99 99 76 66 62 60 44 38 22 16 13 14 10 5 3 2 2 2 2 2 2 2 2 2 2 1 2 2 2 2
100 100 100 99 99 93 100 100 97 99 91 86 98 100 100 97 82 81 64 59 59 46 32 23 18 16 17 8 5 2 2 2 2 3 2 2 2 2 2 2 2 2 2 2 3
100 98 100 91 96 96 100 98 92 100 100 100 100 100 100 91 95 76 69 72 56 38 30 25 14 16 14 7 5 2 2 2 3 3 3 3 2 2 2 3 2 2 2 2 3
100 100 100 100 100 100 100 95 87 95 100 100 100 100 93 89 85 83 74 64 53 41 30 24 18 15 15 8 5 3 2 3 3 3 4 3 3 3 3 3 4 3 2 2 2
100 100 100 100 100 100 97 94 100 100 100 100 99 88 92 93 86 75 66 58 46 37 30 20 17 17 15 8 4 3 2 3 4 4 4 3 3 3 3 4 3 3 3 3 2
100 100 100 100 100 100 100 100 100 100 100 100 100 100 100 92 82 71 58 51 44 36 29 22 17 17 13 8 5 3 2 3 4 4 5 4 3 3 3 3 3 3 4 4 3
100 100 100 100 100 100 100 100 100 100 100 100 100 100 95 86 77 60 54 45 44 40 29 23 19 18 9 8 6 4 3 3 5 5 6 4 4 4 3 4 4 4 3 4 4
100 100 100 100 100 100 100 100 100 100 100 100 100 98 91 78 65 55 55 50 44 38 26 25 19 15 10 7 6 4 3 4 6 5 5 4 5 4 3 4 4 4 3 3 4
87 90 99 100 100 100 100 98 100 100 100 100 100 95 80 68 62 58 60 52 41 31 29 25 19 12 10 9 7 5 4 4 6 5 6 4 5 4 4 4 4 4 4 3 4
100 100 93 100 100 100 100 100 100 100 100 98 95 85 72 66 64 65 60 54 40 31 30 22 18 10 9 10 8 5 4 5 5 6 6 5 5 6 5 4 5 5 5 4 5
100 98 99 100 100 100 100 100 100 100 100 90 89 77 69 68 65 64 61 53 39 33 24 21 15 10 8 12 8 6 5 5 5 6 7 6 7 6 6 6 6 5 5 5 6
100 100 92 100 100 100 96 89 91 98 90 83 79 72 68 72 66 70 65 44 34 28 28 20 13 10 8 10 8 7 5 5 6 6 7 7 7 5 6 7 6 6 6 6 8
100 95 100 100 99 92 91 94 100 94 92 84 81 74 77 71 71 68 51 39 31 31 25 18 14 11 11 9 9 7 6 6 6 6 8 8 8 7 6 8 8 9 10 8 12
100 98 95 96 100 98 100 91 98 95 88 84 83 90 80 82 73 62 47 33 34 28 21 17 12 12 10 10 9 8 6 6 6 6 9 9 8 8 8 9 10 11 15 10 18
Wind_Speed
27 30 31 34 37 42 46 51 54 57 65 68 68 66 71 76 81 85 91 94 95 95 97 99 103 106 111 118 118 105 73 61 50 50 35 22 34 42 45 54 53 63 64 68 70
28 29 36 38 39 44 47 52 55 59 66 66 72 71 75 80 84 87 91 97 103 102 104 105 108 115 118 122 129 120 71 57 48 43 33 23 32 41 45 48 60 66 66 66 69
35 37 42 41 45 47 51 56 58 59 65 69 77 73 81 84 86 88 92 100 105 108 114 116 114 115 119 127 128 107 66 49 45 37 32 23 32 41 48 53 64 71 68 66 64
37 39 42 43 46 49 53 59 59 62 68 72 76 78 85 88 94 96 99 102 108 112 116 119 119 122 121 131 136 103 62 48 41 31 31 23 33 43 52 58 61 66 72 68 65
40 41 41 43 47 51 55 60 62 66 68 76 78 82 88 93 98 100 102 107 111 115 119 122 128 131 127 130 142 93 61 44 38 30 30 26 31 41 51 53 62 67 66 69 69
43 44 49 46 49 53 59 60 64 69 73 77 78 83 89 94 100 104 106 109 113 119 122 124 127 131 136 135 134 83 60 42 35 27 27 30 35 43 50 55 59 64 69 68 71
48 53 53 51 51 53 60 62 67 70 74 77 81 87 93 97 101 105 108 109 115 122 126 128 131 130 135 140 124 78 56 40 33 26 25 31 34 38 44 55 62 67 68 73 75
54 55 58 58 54 56 61 63 67 73 75 79 84 90 97 100 102 105 110 116 119 125 128 135 137 135 137 139 116 83 56 42 33 25 24 31 39 46 51 59 62 66 76 68 71
51 54 55 55 54 57 62 66 69 73 76 81 85 92 98 101 106 108 111 116 122 129 132 135 137 136 138 141 107 75 52 40 30 26 21 31 39 47 53 61 69 70 72 66 72
52 53 53 57 57 61 67 72 72 79 80 87 90 94 96 100 105 110 116 121 125 131 131 136 135 137 140 145 104 73 51 36 26 20 22 29 35 47 55 62 72 74 72 72 72
52 56 57 59 63 66 71 75 81 83 86 88 92 95 98 103 105 111 118 125 129 132 136 139 137 142 150 143 100 75 53 36 24 21 18 24 33 43 55 64 70 78 76 72 69
56 58 60 63 65 68 72 76 79 83 85 88 93 96 98 99 105 113 120 125 128 135 138 142 143 145 145 139 95 72 52 36 24 20 17 21 28 40 48 57 67 76 77 76 72
60 62 63 65 67 71 71 76 82 83 85 89 91 96 98 100 105 113 120 127 132 136 142 143 145 147 149 134 88 69 51 34 22 19 19 22 30 39 49 58 66 72 78 80 78
64 66 66 67 70 71 74 76 78 82 83 88 91 94 97 102 107 115 123 128 134 140 144 148 148 148 146 124 82 67 50 31 19 19 20 22 29 36 48 56 64 71 77 84 85
64 66 66 70 73 73 73 76 79 82 87 90 92 95 97 104 111 118 125 132 136 140 145 151 151 150 146 111 77 62 48 29 19 19 20 22 28 33 43 50 57 67 80 86 90
68 69 69 71 71 72 73 78 80 87 88 92 93 96 102 108 111 119 126 133 139 144 149 151 151 153 147 100 74 58 44 27 19 15 20 21 24 30 36 40 51 59 77 88 88
69 71 72 73 74 75 75 79 84 91 92 94 94 99 104 107 114 118 125 131 136 140 146 150 153 152 153 96 72 58 39 24 18 16 15 22 24 31 35 42 50 55 67 79 85
69 72 73 75 75 76 79 82 87 91 93 95 97 102 107 111 114 119 127 132 138 144 149 150 155 147 147 90 67 55 35 23 16 14 14 21 24 31 38 45 54 58 65 72 76
72 72 72 76 80 83 81 83 86 90 92 97 100 106 110 111 116 121 128 133 138 144 150 155 154 150 137 86 67 49 32 21 14 13 11 19 23 31 39 45 50 58 69 73 74
78 76 74 78 83 84 85 84 86 91 95 101 103 106 109 114 117 122 128 135 140 147 155 155 158 159 115 81 66 46 30 19 13 13 13 18 23 33 40 44 48 59 67 74 77
83 78 80 81 85 83 83 83 89 94 96 101 103 105 111 114 117 124 129 135 141 146 152 152 150 143 102 79 64 44 29 17 14 16 17 17 23 32 37 43 50 59 65 71 76
88 87 85 88 88 88 90 93 95 94 97 101 106 107 111 114 118 124 128 134 142 148 152 153 154 129 100 83 65 42 27 17 17 17 16 16 22 27 37 45 50 58 64 72 80
88 90 91 90 90 90 90 93 95 95 95 103 103 106 111 114 118 123 127 133 141 146 152 153 154 121 92 79 59 39 26 19 21 15 15 18 22 30 37 45 51 59 64 71 76
90 89 89 93 89 90 92 94 94 94 97 101 104 106 110 113 118 122 127 134 142 146 149 148 138 112 84 80 57 36 25 22 21 14 16 18 29 36 39 46 55 60 65 69 73
95 90 87 92 92 93 94 96 93 93 95 99 104 107 110 113 117 120 125 135 140 140 139 138 122 100 83 70 51 34 24 24 22 15 16 22 33 38 43 50 56 59 62 68 70
90 89 86 84 86 92 93 91 89 94 97 102 105 108 109 114 117 121 128 130 135 134 132 127 113 96 85 70 48 33 22 24 21 18 18 28 33 39 46 51 55 61 66 70 72
93 88 87 87 84 90 86 91 93 94 97 98 100 105 111 112 117 120 126 130 126 122 123 115 109 94 86 66 46 33 20 24 22 21 21 31 37 43 48 54 60 67 70 69 72
Wind_Direction
324 331 330 328 331 331 335 336 339 342 346 345 343 339 339 340 342 344 343 343 343 344 344 343 343 346 347 344 341 341 330 321 318 307 297 251 226 224 212 209 201 201 205 205 207
324 323 328 328 328 329 330 333 338 339 344 341 342 338 336 337 341 344 344 344 345 343 342 343 344 346 345 344 342 340 326 323 315 303 289 247 225 214 209 206 200 197 205 204 205
319 318 321 324 324 327 329 331 334 335 337 338 339 338 339 340 339 340 341 342 342 342 343 343 343 345 345 345 343 336 331 323 315 298 281 239 216 210 203 199 202 198 196 199 199
313 317 315 320 323 325 327 325 330 331 333 335 338 338 338 339 340 339 340 339 340 342 341 342 342 342 343 343 342 339 332 324 314 292 274 241 215 206 204 201 202 199 199 193 193
307 310 313 315 318 321 323 322 325 329 330 332 333 335 337 336 337 337 338 339 339 339 338 341 342 341 342 342 342 338 332 320 308 290 267 244 216 208 210 203 206 203 201 193 189
305 312 313 314 315 318 318 321 323 325 327 329 332 333 335 336 335 336 337 338 337 337 338 340 341 342 343 343 344 334 332 317 304 289 265 239 220 211 207 204 206 204 202 195 189
301 307 310 307 312 316 317 319 322 322 324 327 328 331 332 334 333 334 334 333 336 337 338 339 340 342 344 344 344 337 331 318 303 285 263 238 222 204 204 208 207 204 203 203 189
298 301 304 305 310 316 316 318 321 321 323 326 328 330 331 332 332 333 332 334 334 336 337 339 339 344 344 346 344 338 332 319 308 281 255 235 219 211 202 203 206 208 203 204 192
302 305 303 301 306 312 315 318 320 321 324 324 327 328 329 330 330 332 332 331 333 335 335 338 339 343 344 345 342 340 329 316 302 281 242 233 220 213 208 199 203 208 206 201 196
302 302 303 303 305 309 312 315 317 320 323 323 326 326 328 329 329 330 331 332 333 333 335 337 339 342 343 347 341 339 331 316 302 277 249 225 215 210 208 199 201 203 205 200 197
299 300 301 303 305 307 309 314 318 319 320 322 324 326 328 328 328 329 329 330 332 332 333 334 338 342 340 344 341 338 331 321 305 282 249 228 218 209 205 199 202 199 202 200 191
291 296 299 302 306 308 312 316 316 318 318 320 322 324 326 326 328 328 327 329 329 330 332 335 339 341 343 345 340 336 331 323 308 291 267 234 217 213 208 204 201 202 198 198 189
289 291 295 300 305 306 311 314 316 317 319 321 323 324 326 326 325 326 326 326 329 329 331 335 339 341 343 346 338 334 330 323 312 294 266 241 222 212 209 206 201 200 199 198 192
287 291 296 299 303 308 311 314 316 318 319 321 321 322 323 324 324 324 325 326 328 329 331 333 337 339 344 344 337 332 330 324 316 295 265 246 227 217 210 209 204 198 199 196 195
288 293 297 300 302 306 312 313 316 319 319 321 321 321 322 322 323 324 325 326 327 329 330 331 337 339 340 343 335 331 330 324 323 300 269 243 226 214 214 210 208 201 197 200 196
289 293 297 301 303 304 309 314 314 319 318 319 320 320 321 322 323 324 325 325 326 327 329 332 336 338 340 342 334 331 328 326 325 301 264 243 224 212 207 207 207 203 201 202 200
289 293 296 298 300 303 309 314 315 317 317 317 318 317 319 320 322 323 323 323 324 327 328 333 335 341 343 342 336 331 329 327 323 290 255 241 221 205 206 200 203 200 204 204 205
288 291 294 296 298 303 306 311 313 315 314 314 315 315 318 320 321 322 322 324 326 327 328 331 334 339 345 343 335 330 329 326 320 283 247 235 222 207 200 202 201 194 200 205 204
284 289 293 296 300 303 307 310 311 311 311 312 314 316 317 319 321 322 323 325 327 327 330 332 334 338 343 343 338 331 326 324 312 280 242 236 223 208 199 198 200 195 195 202 199
284 288 292 294 297 299 302 308 308 309 311 311 314 316 317 319 322 324 324 325 327 329 328 331 333 338 344 344 339 335 323 319 294 264 231 231 218 210 198 195 196 195 194 195 195
285 286 290 293 297 300 303 303 306 309 311 312 313 315 317 321 323 324 326 327 327 328 329 331 334 340 343 343 340 336 321 308 277 257 232 219 212 211 197 191 191 193 194 190 190
283 289 289 291 294 297 299 303 306 309 310 313 314 317 319 321 324 325 327 327 327 328 329 330 332 340 344 344 340 334 319 295 263 257 236 214 207 204 194 186 185 188 191 188 185
279 284 287 289 291 295 299 302 306 310 312 312 315 317 319 323 325 326 327 328 327 328 328 330 333 339 345 344 340 330 318 284 265 248 230 209 198 191 192 183 186 185 188 186 188
281 285 287 289 291 296 299 303 306 310 310 311 315 318 320 324 325 327 328 327 328 327 327 329 333 339 344 343 339 329 315 278 266 241 221 204 194 191 186 187 185 185 185 185 187
283 284 284 287 291 294 297 300 306 308 309 313 316 319 322 323 326 327 328 328 327 327 329 332 333 341 343 342 336 328 310 275 264 234 213 195 200 194 187 188 189 184 185 183 186
281 282 286 287 290 293 298 304 307 309 312 313 317 320 322 323 325 326 326 327 326 325 328 329 333 339 340 339 334 326 306 271 261 231 206 199 199 195 190 189 189 183 184 186 183
278 282 283 289 293 295 302 304 304 308 312 315 319 320 322 324 324 325 325 324 323 328 327 327 333 336 338 337 333 322 301 268 255 233 204 201 200 199 193 192 189 187 188 180 183